Showing default

POLAR BEAR, 17070

Orbit data source: Space-Track

POLAR BEAR, 17070 is an American payload satellite in LEO that was launched on Fri, 14 Nov 1986 UTC via an SCOUT G-1 launch vehicle from the Air Force Western Test Range (AFWTR). Payload-class satellites include a variety of spacecraft equipped with specific instruments for various scientific and technological missions. These include communications satellites like Starlink; space stations such as the ISS; scientific satellites like the Hubble; Earth observation satellites from companies like Planet Labs, Umbra, and HawkEye 360; GPS; miniature CubeSats for education and research; and military/defense satellites.

Loading next visibility...
Identifier
17070, 1986-088A
Orbit
LEO
Last TLE update
11 hours ago
Origin
Manufacturer
APL
Mission
Civil Science
Bus & Motor
TRANSIT 5, Unknown motor
Mass
114 kg wet, 114 kg dry
Launch date (UTC)
1986-11-14 (39 years ago)
Launch vehicle
SCOUT G-1
Launch site
Air Force Western Test Range (AFWTR)
Object type
Payload
Rocket body
Debris
Shape & HBR
Oct Cyl + 4 Pan + 1 Ant, Unknown HBR
Radar Cross Section
0.163 m², Large (>1 m²)

Expand to show TLE details & history

TLE from 11 hours ago
0 POLAR BEAR
1 17070U 86088A   25192.51982764  .00000071  00000-0  62536-4 0  9990
2 17070  89.6145 189.9083 0037699 223.6626 249.4447 13.75212148938591
Epoch: 2025-07-11T12:28Z
TLE epoch observation values (Epoch: 2025-07-11T12:28:33.108Z)
Latitude
67.37095°
Longitude
-107.82028°
Altitude
1,002.501 km
Speed
7.352 km/s
True Right ascension
00h 35m 57s
True Declination
67° 15' 09"
Sunlit
Object was in daylight at epoch
Visualization orbit readout
Latitude
39.94539°
Longitude
-107.23935°
Altitude
982.804 km
Speed
7.366 km/s
Apparent Right ascension
00h 04m 20s
Apparent Declination
3° 28' 50"
Sunlit
Object is in daylight
Visualization observer readout
Local Sidereal Time
11:25:08
Azimuth
345.929° N
Elevation
-45.68°
Doppler factor
1
Orbital elements
Apogee altitude
1,005.663 km
Perigee altitude
950.2 km
Semi-major axis
7,356.068 km
Eccentricity
0.00377
Inclination
89.6145°
RAAN
189.9083°
Arg. of periapsis
223.6626°
True anomaly
Unknown
Mean anomaly
249.4447°
Eccentric anomaly
Unknown
Mean motion
3.44013 °/min
Orbital period
104.65 mins
BSTAR
0.000062536
Loading maneuver chart data...
Loading SW <> Apogee altitude chart data...
Loading historical data...
Loading historical data...
Loading historical data...
Loading historical data...
Loading historical data...
Loading historical data...
Loading historical data...
Other satellites on launch #88 in the year 1986 (1986-11-14 UTC)

POLAR BEAR Visibility forecast

Observer location: undefined°, undefined°

Span
Click to sort rows by Start time (UTC) header in descending order
Start Az.
Max El. time (UTC)
Max El. Az.
Max El.
End time (UTC)
End Az.
11 mins2025-07-12 00:15:11.519Z176.503° S2025-07-12 00:20:11.519Z177.131° S44.385°2025-07-12 00:26:11.519Z358.282° N
9 mins2025-07-12 11:14:11.519Z28.812° NE2025-07-12 11:18:11.519Z78.018° E27.077°2025-07-12 11:23:11.519Z140.476° SSE
9 mins2025-07-12 12:59:11.519Z336.385° NNW2025-07-12 13:03:11.519Z277.821° WNW31.313°2025-07-12 13:08:11.519Z217.172° SW
5 mins2025-07-12 23:00:11.519Z113.53° SE2025-07-12 23:03:11.519Z77.886° E21.967°2025-07-12 23:05:11.519Z51.178° ENE
|